Regional Weather Roundup
Issued by NWS

Home | Current Version | Previous Version | Text Only | Print | Product List | Glossary Off
Versions: 1 2 3 4 5 6 7 8 9 10 11 12 13 14 15 16 17 18 19 20 21 22 23 24 25 26 27 28 29 30 31 32 33 34 35 36 37 38 39 40 41 42 43 44 45 46 47 48 49 50

000
ASUS45 KTFX 181610
RWRMT
MONTANA REGIONAL WEATHER ROUNDUP
NATIONAL WEATHER SERVICE GREAT FALLS MT
1000 AM MDT FRI AUG 18 2017

NOTE: "FAIR" INDICATES FEW OR NO CLOUDS BELOW 12000 FEET WITH NO
SIGNIFICANT WEATHER AND/OR OBSTRUCTIONS TO VISIBILITY.

MTZ001>007-043-181700-
WEST OF THE DIVIDE

CITY           SKY/WX    TMP DP  RH WIND       PRES   REMARKS
KALISPELL      SUNNY     65  47  52 VRB3      30.07F
MISSOULA       SUNNY     62  42  47 CALM      30.13F
BUTTE          SUNNY     59  35  40 CALM      30.22F HAZE
MULLAN PASS    SUNNY     60  35  39 VRB3      30.22S
ANACONDA         N/A     70  32  24 E10       30.17F
DEER LODGE       N/A     63  37  39 CALM      30.20S
EUREKA           N/A     72  45  37 MISG      30.02F
HAMILTON         N/A     66  39  37 CALM      30.13F
LIBBY            N/A     64  43  45 N5        30.04F
RONAN            N/A     74  44  34 SW5       30.12S
$$

MTZ008-052>055-181700-
SOUTHWEST MONTANA

CITY           SKY/WX    TMP DP  RH WIND       PRES   REMARKS
BOZEMAN        SUNNY     66  41  40 SE3       30.16F
DILLON         SUNNY     65  42  43 CALM      30.19F
W YELLOWSTONE  SUNNY     57  39  51 CALM      30.31S
ENNIS          SUNNY     64  37  36 CALM      30.25F
THREE FORKS      N/A     64  43  46 E1        30.13
TWIN BRIDGES     N/A     59  43  55 CALM      30.16
$$

MTZ009-010-012-014-046-048-049-054-181700-
EAST SLOPES AND CENTRAL MONTANA

CITY           SKY/WX    TMP DP  RH WIND       PRES   REMARKS
CUT BANK       SUNNY     77  40  26 W18       30.01S
GREAT FALLS    SUNNY     74  37  26 SW16      30.05S
MALMSTROM AFB  SUNNY     74  37  26 SW17      30.04F
HELENA         SUNNY     69  41  36 E3        30.11F HAZE
AUGUSTA          N/A     74  33  22 W9        30.07F
BOWMANS CRNR     N/A     70  36  28 S13       30.06F
CHOTEAU          N/A     77  39  25 S6        30.05F
CONRAD           N/A     76  46  34 S1        30.03F
FAIRFIELD        N/A     74  38  26 SW12      30.03F
POWER            N/A     73  37  26 SW13      30.04S
RAYNESFORD       N/A     72  35  25 W10       30.07F
ULM              N/A     74  37  26 SW8       30.05F
$$

MTZ011-013-016-021-045-047-050-051-181700-
NORTH CENTRAL MONTANA

CITY           SKY/WX    TMP DP  RH WIND       PRES   REMARKS
HAVRE          SUNNY     75  38  26 SW18      29.96F
LEWISTOWN      SUNNY     73  39  29 VRB3      30.07F
N BAR RANCH      N/A     77  36  22 W13       30.10S
CHINOOK          N/A     66  43  42 CALM      29.97F
DENTON           N/A     71  37  28 SE6       30.01F
GEYSER           N/A     74  35  24 W18G24    30.05F
GRASS RANGE      N/A     76  35  22 W15       30.01F
JUDITH GAP       N/A     73  31  21 W17       30.09F
WINIFRED         N/A     74  36  25 NW7       30.04F
$$

MTZ017>020-022>027-061-062-181700-
NORTHEAST MONTANA

CITY           SKY/WX    TMP DP  RH WIND       PRES   REMARKS
GLASGOW        SUNNY     70  48  45 CALM      29.98S
JORDAN           N/A     74  39  28 NE3       29.99F
SIDNEY         SUNNY     70  59  68 CALM      30.00S
WOLF POINT     SUNNY     73  51  46 E5        29.98F
MALTA          SUNNY     66  48  52 NE6       29.97F
PLENTYWOOD       N/A     70  52  52 CALM      30.00S
POPLAR           N/A     73  52  46 CALM      29.99F
$$

MTZ028>42-056>058-181700-
SOUTHCENTRAL AND SOUTHEAST MONTANA

CITY           SKY/WX    TMP DP  RH WIND       PRES   REMARKS
BAKER          SUNNY     74  46  36 VRB6      30.05S
BILLINGS       SUNNY     68  42  38 SW15      30.08R
LIVINGSTON     SUNNY     69  42  37 NW8       30.14F
MILES CITY     SUNNY     71  42  35 S5        30.02F
BIG TIMBER     SUNNY     72  37  28 W17       30.13F
EKALAKA          N/A     74  46  36 NW1       30.04
HARLOWTON        N/A     72  38  29 MISG      30.10F
LAUREL           N/A     69  39  33 S10       30.06F
$$

REGIONAL REPORTS...DAKOTAS

CITY           SKY/WX    TMP DP  RH WIND       PRES   REMARKS
WILLISTON      SUNNY     69  56  62 CALM      30.00R
MINOT          SUNNY     73  55  53 NW10      29.93S
DICKINSON      SUNNY     73  53  49 W9        30.00R
BEACH            N/A     73  46  38 CALM      30.06S
CROSBY           N/A     72  48  43 NW7       29.98F
TIOGA            N/A     70  55  60 NW7       30.00S
WATFORD CITY     N/A     72  55  56 NW3       29.99S
BISMARCK       SUNNY     70  57  63 NW9       29.97R
GRAND FORKS    PTSUNNY   76  59  55 N12       29.85S
FARGO          CLOUDY    71  61  70 CALM      29.88S
BUFFALO SD       N/A     73  48  41 CALM      29.99S
RAPID CITY     SUNNY     74  48  39 NW12      30.06S
$$

REGIONAL REPORTS...WYOMING/IDAHO/WASHINGTON

CITY           SKY/WX    TMP DP  RH WIND       PRES   REMARKS
GILLETTE       SUNNY     77  39  25 N3        30.13S
SHERIDAN       SUNNY     77  42  28 E3        30.09F
BUFFALO WY     SUNNY     78  31  17 E5        30.17S
CODY             N/A     74  43  32 N7        30.17
YELLOWSTONE LA   N/A     56  44  64 E3        30.39S
IDAHO FALLS    SUNNY     69  40  34 SW7       30.20F
SALMON         SUNNY     60  44  55 SW3       30.20F
BOISE          SUNNY     71  41  33 CALM      30.11S
SPOKANE        MOSUNNY   67  45  45 S7        30.06S
$$

REGIONAL REPORTS...ALBERTA

CITY           SKY/WX    TMP DP  RH WIND       PRES   REMARKS
EDMONTON       SUNNY     64  52  63 S8        29.80F
CALGARY        MOSUNNY   68  43  40 S8        29.90F
LETHBRIDGE     MOSUNNY   79  45  29 W14       29.92F
MEDICINE HAT   SUNNY     72  48  43 SW8       29.89F
$$

REGIONAL REPORTS...SASKATCHEWAN

CITY           SKY/WX    TMP DP  RH WIND       PRES   REMARKS
SWIFT CURRENT  SUNNY     72  46  40 S10       29.95F
REGINA         MOSUNNY   70  48  46 W5        29.95F
SASKATOON      MOSUNNY   68  54  60 SW7       29.92F
$$



USA.gov is the U.S. government's official web portal to all federal, state and local government web resources and services.